CW0933 Weather Reports


Display with metric or nautical units.
time (UTC)temp
F
wind
direction
speed
MPH
gust
MPH
rain 1hr
in
rain 24hr
in
rain mn
in
humidity
%
barometer
mb
20190116093309 60 240 14.0 29.0 0.00 0.00 0.00 50 1010.8
20190116092309 59 241 13.0 26.0 0.00 0.00 0.00 48 1011.2
20190116091309 60 246 12.0 26.0 0.00 0.00 0.00 47 1011.2
20190116090309 60 233 12.0 22.0 0.00 0.00 0.00 45 1011.3
20190116085309 59 229 12.0 25.0 0.00 0.00 0.00 44 1011.3
20190116084309 59 222 11.0 24.0 0.00 0.00 0.00 43 1011.5
20190116083309 59 241 9.0 23.0 0.00 0.00 0.00 42 1012.0
20190116082310 59 228 11.0 24.0 0.00 0.00 0.00 42 1011.9
20190116081309 58 224 8.0 23.0 0.00 0.00 0.00 42 1011.9
20190116080312 58 233 7.0 22.0 0.00 0.00 0.00 43 1012.0
20190116075310 57 225 6.0 16.0 0.00 0.00 0.00 43 1012.2
20190116074309 57 218 5.0 15.0 0.00 0.00 0.00 43 1012.1
20190116073310 56 215 5.0 14.0 0.00 0.00 0.00 44 1012.1
20190116072310 56 204 4.0 16.0 0.00 0.00 0.00 46 1012.1
20190116071310 55 207 4.0 15.0 0.00 0.00 0.00 45 1012.3
20190116070309 55 218 5.0 12.0 0.00 0.00 0.00 45 1012.3
20190116065309 54 205 3.0 10.0 0.00 0.00 0.00 45 1012.2
20190116064309 54 216 3.0 8.0 0.00 0.00 0.00 47 1012.1
20190116063309 53 204 3.0 9.0 0.00 0.00 0.00 48 1011.9
20190116062309 53 191 3.0 10.0 0.00 0.00 0.00 48 1011.9
20190116061309 53 196 3.0 10.0 0.00 0.00 0.00 47 1011.6
20190116060309 53 202 5.0 13.0 0.00 0.00 0.00 46 1011.8
20190116055309 53 213 5.0 9.0 0.00 0.00 0.00 45 1011.8
20190116054309 53 208 4.0 17.0 0.00 0.00 0.00 44 1012.0
20190116053309 53 200 6.0 14.0 0.00 0.00 0.00 43 1011.8
20190116052309 53 208 6.0 22.0 0.00 0.00 0.00 41 1011.9
20190116051309 53 214 4.0 15.0 0.00 0.00 0.00 40 1011.8
20190116050309 53 212 6.0 13.0 0.00 0.00 0.00 39 1011.6
20190116045309 53 215 6.0 15.0 0.00 0.00 0.00 40 1011.5
20190116044309 52 198 5.0 13.0 0.00 0.00 0.00 41 1011.5
20190116043309 52 200 5.0 20.0 0.00 0.00 0.00 41 1011.6
20190116042309 52 202 6.0 16.0 0.00 0.00 0.00 41 1011.3
20190116041309 52 192 5.0 12.0 0.00 0.00 0.00 42 1011.4
20190116040309 52 194 5.0 12.0 0.00 0.00 0.00 43 1011.5
20190116035310 52 190 5.0 17.0 0.00 0.00 0.00 43 1011.5
20190116034309 52 189 6.0 18.0 0.00 0.00 0.00 45 1011.5
20190116033310 52 190 4.0 12.0 0.00 0.00 0.00 46 1011.5
20190116032309 51 182 3.0 13.0 0.00 0.00 0.00 46 1011.7
20190116031310 51 188 5.0 15.0 0.00 0.00 0.00 47 1011.5
20190116030309 51 183 6.0 15.0 0.00 0.00 0.00 48 1011.5
20190116025309 51 182 5.0 21.0 0.00 0.00 0.00 49 1011.8
20190116024309 50 194 5.0 14.0 0.00 0.00 0.00 49 1011.8
20190116023309 50 181 4.0 13.0 0.00 0.00 0.00 50 1011.9
20190116022309 50 179 5.0 17.0 0.00 0.00 0.00 50 1011.9
20190116021310 50 182 4.0 14.0 0.00 0.00 0.00 52 1012.0
20190116020309 49 178 4.0 13.0 0.00 0.00 0.00 52 1012.1
20190116015310 49 181 3.0 15.0 0.00 0.00 0.00 53 1012.2
20190116014310 50 189 5.0 14.0 0.00 0.00 0.00 52 1012.2
20190116013309 49 185 3.0 12.0 0.00 0.00 0.00 53 1012.3
20190116012309 49 189 5.0 12.0 0.00 0.00 0.00 53 1012.6
20190116011310 49 181 4.0 14.0 0.00 0.00 0.00 54 1012.8
20190116010309 49 180 4.0 14.0 0.00 0.00 0.00 53 1013.0
20190116005310 50 189 4.0 10.0 0.00 0.00 0.00 53 1013.1
20190116004309 50 183 3.0 8.0 0.00 0.00 0.00 53 1013.3
20190116003310 50 186 3.0 8.0 0.00 0.00 0.00 53 1013.4
20190116002309 50 183 2.0 8.0 0.00 0.00 0.00 52 1013.5
20190116001309 50 172 1.0 14.0 0.00 0.00 0.00 53 1013.5
20190116000309 50 179 3.0 10.0 0.00 0.00 0.00 53 1013.5
20190115235310 50 196 4.0 10.0 0.00 0.00 0.00 52 1013.5
20190115234309 50 197 3.0 10.0 0.00 0.00 0.00 53 1013.4
20190115233309 50 187 3.0 5.0 0.00 0.00 0.00 53 1013.5
20190115232309 50 183 2.0 7.0 0.00 0.00 0.00 53 1013.5
20190115231309 50 186 3.0 12.0 0.00 0.00 0.00 53 1013.6
20190115230309 50 185 3.0 8.0 0.00 0.00 0.00 53 1013.6
20190115225310 50 177 3.0 6.0 0.00 0.00 0.00 53 1013.7
20190115224309 50 182 3.0 12.0 0.00 0.00 0.00 52 1013.8
20190115223309 50 183 2.0 7.0 0.00 0.00 0.00 53 1013.8
20190115222309 50 181 2.0 5.0 0.00 0.00 0.00 52 1013.9
20190115221309 50 180 2.0 8.0 0.00 0.00 0.00 52 1014.0
20190115220309 50 183 2.0 5.0 0.00 0.00 0.00 52 1014.0
20190115215310 50 180 3.0 8.0 0.00 0.00 0.00 52 1014.0
20190115214309 50 177 3.0 6.0 0.00 0.00 0.00 53 1014.2
20190115213309 50 175 2.0 9.0 0.00 0.00 0.00 54 1014.2
20190115212309 50 171 3.0 8.0 0.00 0.00 0.00 53 1014.4
20190115211310 50 183 3.0 5.0 0.00 0.00 0.00 53 1014.5
20190115210309 50 182 3.0 7.0 0.00 0.00 0.00 53 1014.6
20190115205309 50 180 2.0 3.0 0.00 0.00 0.00 54 1014.7
20190115204310 50 181 1.0 3.0 0.00 0.00 0.00 54 1014.7
20190115203310 51 184 2.0 6.0 0.00 0.00 0.00 54 1014.9
20190115202310 51 174 2.0 5.0 0.00 0.00 0.00 54 1014.9
20190115201309 51 176 1.0 3.0 0.00 0.00 0.00 55 1014.9
20190115200309 50 181 1.0 3.0 0.00 0.00 0.00 56 1014.8
20190115195309 50 183 1.0 3.0 0.00 0.00 0.00 57 1014.9
20190115194309 50 185 1.0 3.0 0.00 0.00 0.00 58 1015.0
20190115193310 51 181 2.0 3.0 0.00 0.00 0.00 57 1014.9
20190115192310 51 187 2.0 3.0 0.00 0.00 0.00 57 1014.9
20190115191310 51 182 2.0 3.0 0.00 0.00 0.00 58 1014.9
20190115190309 51 178 2.0 5.0 0.00 0.00 0.00 59 1014.9
20190115185310 51 182 2.0 3.0 0.00 0.00 0.00 60 1015.0
20190115184310 52 185 2.0 5.0 0.00 0.00 0.00 60 1014.9
20190115183309 52 180 1.0 3.0 0.00 0.00 0.00 59 1015.0
20190115182309 52 207 0.0 0.0 0.00 0.00 0.00 59 1014.9
20190115181309 52 214 0.0 0.0 0.00 0.00 0.00 59 1014.8
20190115180309 53 222 0.0 0.0 0.00 0.00 0.00 59 1014.7
20190115175309 53 222 0.0 0.0 0.00 0.00 0.00 59 1014.8
20190115174309 53 222 0.0 0.0 0.00 0.00 0.00 59 1014.8
20190115173315 53 222 0.0 0.0 0.00 0.00 0.00 59 1014.7
20190115172309 54 225 0.0 0.0 0.00 0.00 0.00 58 1014.7
20190115171310 54 227 0.0 0.0 0.00 0.00 0.00 57 1014.6
20190115170310 55 228 0.0 0.0 0.00 0.00 0.00 57 1014.6
20190115165309 55 228 0.0 0.0 0.00 0.00 0.00 56 1014.7
20190115164309 55 229 0.0 0.0 0.00 0.00 0.00 55 1014.7
20190115163309 56 230 0.0 0.0 0.00 0.00 0.00 56 1014.6
20190115162310 56 230 0.0 0.0 0.00 0.00 0.00 56 1014.6
20190115161310 57 232 0.0 0.0 0.00 0.00 0.00 55 1014.7
20190115160309 57 232 0.0 0.0 0.00 0.00 0.00 53 1014.7
20190115155309 58 232 0.0 0.0 0.00 0.00 0.00 53 1014.5
20190115154309 58 232 0.0 0.0 0.00 0.00 0.00 52 1014.4
20190115153309 58 232 0.0 0.0 0.00 0.00 0.00 52 1014.4
20190115152310 58 232 0.0 0.0 0.00 0.00 0.00 52 1014.4
20190115151309 59 232 0.0 0.0 0.00 0.00 0.00 51 1014.5
20190115150309 59 232 0.0 0.0 0.00 0.00 0.00 50 1014.6
20190115145309 59 232 0.0 0.0 0.00 0.00 0.00 50 1014.5
20190115144309 59 234 0.0 0.0 0.00 0.00 0.00 50 1014.4
20190115143309 60 237 0.0 0.0 0.00 0.00 0.00 50 1014.5
20190115142309 60 273 0.0 0.0 0.00 0.00 0.00 51 1014.6
20190115141309 61 291 0.0 1.0 0.00 0.00 0.00 49 1014.5
20190115140309 61 268 1.0 8.0 0.00 0.00 0.00 45 1014.7
20190115135309 61 232 6.0 13.0 0.00 0.00 0.00 39 1014.6
20190115134309 62 228 4.0 10.0 0.00 0.00 0.00 42 1014.5
20190115133310 62 230 3.0 12.0 0.00 0.00 0.00 43 1014.5
20190115131309 62 228 4.0 14.0 0.00 0.00 0.00 42 1014.7
20190115130309 62 228 4.0 8.0 0.00 0.00 0.00 42 1014.6
20190115125309 62 213 5.0 12.0 0.00 0.00 0.00 42 1014.6
20190115124310 62 207 2.0 14.0 0.00 0.00 0.00 42 1014.7
20190115123309 62 217 6.0 14.0 0.00 0.00 0.00 42 1014.8
20190115122309 63 221 1.0 15.0 0.00 0.00 0.00 43 1014.8
20190115121309 63 227 2.0 12.0 0.00 0.00 0.00 44 1014.7
20190115120309 63 162 1.0 10.0 0.00 0.00 0.00 43 1014.8
20190115115310 63 224 0.0 12.0 0.00 0.00 0.00 45 1014.9
20190115114309 63 229 5.0 17.0 0.00 0.00 0.00 44 1015.0
20190115113309 63 224 3.0 9.0 0.00 0.00 0.00 45 1015.0
20190115112309 62 232 4.0 17.0 0.00 0.00 0.00 44 1015.1
20190115111309 62 193 0.0 16.0 0.00 0.00 0.00 44 1015.2
20190115110310 61 201 1.0 15.0 0.00 0.00 0.00 46 1015.3
20190115105309 61 215 2.0 13.0 0.00 0.00 0.00 45 1015.4
20190115104310 62 195 1.0 12.0 0.00 0.00 0.00 45 1015.7
20190115103309 61 225 3.0 13.0 0.00 0.00 0.00 45 1015.8
20190115102309 61 231 5.0 14.0 0.00 0.00 0.00 44 1015.9
20190115101309 61 232 6.0 14.0 0.00 0.00 0.00 44 1015.9
20190115100309 61 207 2.0 10.0 0.00 0.00 0.00 46 1016.1
20190115095309 61 220 1.0 10.0 0.00 0.00 0.00 48 1016.3
20190115094309 60 201 0.0 12.0 0.00 0.00 0.00 47 1016.5